Flag for United Kingdom Weather past 2 weeks in Edinburgh, Scotland, United Kingdom

Now
61 °F

Sprinkles. Passing clouds.


Feels Like: 61 °F
Forecast: 46 / 59 °F
Wind: 5 mph from North

Location: Edinburgh Airport

Current Time: Jul 29, 2015 at 5:30:19 PM

Latest Report: Jul 29, 2015 at 4:50 PM


Visibility: N/A

Pressure: 29.86 "Hg

Humidity: 55%

Dew point: 45 °F

Location of EdinburghLocation

Historic Weather in Edinburgh — Graph

°F

Edinburgh temperature yesterday

Maximum temperature yesterday: 57 °F (at 2:50 PM)
Minimum temperature yesterday: 50 °F (at 12:20 AM)
Average temperature yesterday: 53 °F

Past Weeks' High & Low Weather Summary

 TemperatureHumidityPressure
High64 °F (Jul 16, 5:20 PM)100% (Jul 16, 3:20 AM)30.15 "Hg (Jul 16, 3:20 AM)
Low41 °F (Jul 26, 5:20 AM)52% (Jul 26, 12:20 PM)29.42 "Hg (Jul 27, 3:20 AM)
Average55 °F83%29.78 "Hg
* Reported Jul 14 4:20 PM — Jul 29 4:20 PM, Edinburgh, Weather by CustomWeather, © 2015

Note: Actual official high and low records may vary slightly from our data, if they occured in-between our weather recording intervals... More about our weather records

Advertising

Edinburgh weather history for previous 24 hours

 ConditionsComfort  
Time TempWeatherWind HumidityBarometerVisibility
4:20 PM
Wed, Jul 29
63 °FScattered clouds.7 mph56%29.86 "HgN/A
3:50 PM63 °FPassing clouds.8 mph52%29.86 "HgN/A
3:20 PM63 °FPassing clouds.7 mph52%29.86 "HgN/A
2:50 PM63 °FPassing clouds.7 mph56%29.83 "HgN/A
2:20 PM61 °FPassing clouds.7 mph63%29.83 "HgN/A
1:50 PM61 °FScattered clouds.6 mph55%29.83 "HgN/A
1:20 PM61 °FScattered clouds.7 mph59%29.83 "HgN/A
12:50 PM59 °FScattered clouds.8 mph63%29.83 "HgN/A
12:20 PM59 °FScattered clouds.7 mph63%29.83 "HgN/A
11:50 AM59 °FPartly sunny.6 mph68%29.83 "HgN/A
11:20 AM59 °FScattered clouds.7 mph68%29.83 "HgN/A
10:50 AM57 °FScattered clouds.8 mph72%29.80 "HgN/A
10:20 AM57 °FScattered clouds.8 mph72%29.80 "HgN/A
9:50 AM55 °FPassing clouds.7 mph77%29.80 "HgN/A
9:20 AM55 °FPassing clouds.6 mph77%29.80 "HgN/A
8:50 AM52 °FSunny.6 mph88%29.80 "Hg10 mi
8:20 AM52 °FSunny.3 mph94%29.80 "Hg10 mi
7:50 AM50 °FScattered clouds.6 mph94%29.77 "HgN/A
7:20 AM50 °FScattered clouds.3 mph94%29.77 "HgN/A
6:50 AM50 °FSunny.3 mph94%29.77 "Hg10 mi
6:20 AM48 °FPartly sunny.3 mph100%29.77 "Hg3 mi
5:50 AM48 °FPassing clouds.3 mph94%29.77 "HgN/A
5:20 AM48 °FLight rain. Passing clouds.3 mph94%29.77 "HgN/A
4:50 AM48 °FLight rain. Passing clouds.2 mph94%29.74 "HgN/A
4:20 AM48 °FPassing clouds.3 mph94%29.74 "HgN/A
3:50 AM48 °FPassing clouds.5 mph94%29.74 "HgN/A
3:20 AM48 °FPassing clouds.5 mph94%29.74 "HgN/A
2:50 AM48 °FPassing clouds.5 mph94%29.74 "HgN/A
2:20 AM50 °FPartly cloudy.3 mph94%29.74 "HgN/A
1:50 AM50 °FPassing clouds.5 mph94%29.74 "HgN/A
1:20 AM50 °FPassing clouds.3 mph94%29.74 "HgN/A
12:50 AM50 °FLight rain. Partly cloudy.3 mph94%29.74 "HgN/A
12:20 AM50 °FLight rain. Partly cloudy.6 mph100%29.74 "HgN/A
11:50 PM
Tue, Jul 28
52 °FLight rain. Passing clouds.5 mph94%29.71 "HgN/A
10:20 PM50 °FLight rain. Clear.3 mph100%29.71 "HgN/A
9:50 PM52 °FLight rain. Clear.3 mph94%29.71 "HgN/A
9:20 PM52 °FLight rain. Clear.2 mph94%29.71 "HgN/A
8:50 PM52 °FLight rain. Clear.2 mph94%29.68 "HgN/A
8:20 PM54 °FPartly sunny.No wind88%29.68 "HgN/A
7:50 PM54 °FPartly sunny.No wind88%29.68 "HgN/A
7:20 PM54 °FPassing clouds.2 mph82%29.68 "HgN/A
6:50 PM54 °FScattered clouds.5 mph82%29.68 "HgN/A
6:20 PM54 °FBroken clouds.6 mph88%29.68 "HgN/A
5:50 PM54 °FBroken clouds.5 mph88%29.68 "HgN/A
5:20 PM54 °FBroken clouds.3 mph88%29.68 "HgN/A
Weather by CustomWeather, © 2015

See weather overviewHow to use our weather pages